STARLINK-34322, 64702

Orbit data source: Space-Track

STARLINK-34322, 64702 is a payload satellite owned by SpaceX/Seattle (US) in LEO that was launched on Sat, 28 Jun 2025 UTC via an FALCON 9 launch vehicle from the Air Force Western Test Range (AFWTR). Payload-class satellites include a variety of spacecraft equipped with specific instruments for various scientific and technological missions. These include communications satellites like Starlink; space stations such as the ISS; scientific satellites like the Hubble; Earth observation satellites from companies like Planet Labs, Umbra, and HawkEye 360; GPS; miniature CubeSats for education and research; and military/defense satellites.

Not visible in the next 10 days
Identifier
64702, 2025-142G
Orbit
LEO
Last TLE update
9 hours ago
Origin
Manufacturer
SpaceX/Seattle
Mission
Operational spacecraft
Bus & Motor
STARLINK V2MO, Unknown motor
Mass
575 kg wet, ~530 kg dry
Launch date (UTC)
2025-06-28 (1 week ago)
Launch vehicle
FALCON 9
Launch site
Air Force Western Test Range (AFWTR)
Object type
Payload
Rocket body
Debris
Shape & HBR
Unknown
Radar Cross Section
RCS unknown

Expand to show TLE details & history

TLE from 9 hours ago
0 STARLINK-34322
1 64702U 25142G   25186.58335648 -.01097571  00000-0 -44992-2 0  9999
2 64702  69.9953 231.3377 0003712 278.1391  47.5933 15.88256271  2291
Epoch: 2025-07-05T14:00Z
TLE epoch observation values (Epoch: 2025-07-05T14:00:01.999Z)
Latitude
-32.17336°
Longitude
84.34635°
Altitude
317.088 km
Speed
7.718 km/s
True Right ascension
14h 32m 41s
True Declination
-32° 00' 30"
Sunlit
Object was in full shadow at epoch
Visualization orbit readout
Latitude
45.25975°
Longitude
117.80367°
Altitude
317.652 km
Speed
7.722 km/s
Apparent Right ascension
20h 09m 02s
Apparent Declination
6° 02' 20"
Sunlit
Object is in daylight
Visualization observer readout
Local Sidereal Time
11:21:40
Azimuth
55.648° ENE
Elevation
-26.186°
Doppler factor
1
Orbital elements
Apogee altitude
307.52 km
Perigee altitude
302.558 km
Semi-major axis
6,683.176 km
Eccentricity
0.00037
Inclination
69.9953°
RAAN
231.3377°
Arg. of periapsis
278.1391°
True anomaly
Unknown
Mean anomaly
47.5933°
Eccentric anomaly
Unknown
Mean motion
3.97255 °/min
Orbital period
90.62 mins
BSTAR
-0.0044992
Loading maneuver chart data...
Loading SW <> Apogee altitude chart data...
Loading historical data...
Loading historical data...
Loading historical data...
Loading historical data...
Loading historical data...
Loading historical data...
Loading historical data...

STARLINK-34322 Visibility

Observer location: undefined°, undefined°

STARLINK-34322 is likely not visible in the next few days
Span
Click to sort rows by Start time (UTC) header in descending order
Start Az.
Max El. time (UTC)
Max El. Az.
Max El.
End time (UTC)
End Az.
|